This is the latest recevied weather packets stored in our database for station/object N9WHM. If no packets are shown the sender has not sent any weather packets the latest 10 day(s).
| Time | Temp. | Humidity | Pressure | Rain* | Wind** | Luminosity | Snow |
|---|---|---|---|---|---|---|---|
| 1777757110 | 20° C | 26% | 1015.7 hPa | 0 mm | - | 533 W/m² | - |
| 1777756503 | 20° C | 26% | 1015.9 hPa | 0 mm | - | 558 W/m² | - |
| 1777756200 | 20° C | 26% | 1015.9 hPa | 0 mm | - | 566 W/m² | - |
| 1777755897 | 20° C | 27% | 1016 hPa | 0 mm | - | 592 W/m² | - |
| 1777755594 | 20° C | 26% | 1016.1 hPa | 0 mm | - | 614 W/m² | - |
| 1777755290 | 20° C | 27% | 1016.2 hPa | 0 mm | - | 592 W/m² | - |
| 1777754988 | 19.44° C | 26% | 1016.5 hPa | 0 mm | - | 617 W/m² | - |
| 1777754685 | 20° C | 28% | 1016.4 hPa | 0 mm | - | 643 W/m² | - |
| 1777754383 | 20.56° C | 26% | 1016.3 hPa | 0 mm | - | 642 W/m² | - |
| 1777753775 | 19.44° C | 26% | 1016.7 hPa | 0 mm | - | 651 W/m² | - |
| 1777753171 | 20° C | 26% | 1016.6 hPa | 0 mm | - | 681 W/m² | - |
| 1777752866 | 20° C | 26% | 1017 hPa | 0 mm | - | 690 W/m² | - |
| 1777752563 | 20° C | 27% | 1017 hPa | 0 mm | - | 696 W/m² | - |
| 1777752259 | 19.44° C | 26% | 1017.1 hPa | 0 mm | - | 700 W/m² | - |
| 1777751957 | 19.44° C | 28% | 1017.2 hPa | 0 mm | - | 708 W/m² | - |
| 1777751654 | 19.44° C | 31% | 1017.3 hPa | 0 mm | - | 714 W/m² | - |
| 1777751350 | 18.89° C | 28% | 1017.2 hPa | 0 mm | - | 723 W/m² | - |
| 1777750743 | 18.33° C | 29% | 1017.5 hPa | 0 mm | - | 736 W/m² | - |
| 1777750440 | 18.33° C | 30% | 1017.7 hPa | 0 mm | - | 744 W/m² | - |
| 1777750135 | 18.89° C | 30% | 1017.9 hPa | 0 mm | - | 745 W/m² | - |
| 1777749833 | 18.89° C | 31% | 1017.9 hPa | 0 mm | - | 748 W/m² | - |
| 1777749530 | 18.89° C | 30% | 1017.9 hPa | 0 mm | - | 755 W/m² | - |
| 1777748925 | 18.89° C | 29% | 1018.1 hPa | 0 mm | - | 762 W/m² | - |
| 1777748318 | 17.78° C | 33% | 1018.3 hPa | 0 mm | - | 769 W/m² | - |
| 1777747711 | 17.78° C | 29% | 1018.6 hPa | 0 mm | - | 773 W/m² | - |
* Rain latest hour (hover to see other rain measurements)
** Current wind speed in m/s (hover to see current wind gust speed)